OBJECT AA, 47437

Orbit data source: Space-Track

You're viewing an Uncataloged Satellite

Recently launched and/or uncataloged satellites may have evolving metadata. Metadata may include but not limited to: Owner, Maufacturer, Bus, Motor, and Mission.

OBJECT AA, 47437 is a satellite in SSO that was launched on Sun, 24 Jan 2021 UTC launched from the Air Force Eastern Test Range (AFETR). Unknown objects in Earth's orbit typically refer to objects detected orbiting the Earth but have not yet been identified or cataloged. These objects could be anything from previously untracked satellites, spent rocket stages, debris from satellite collisions, or even natural meteoroids temporarily captured by Earth's gravity.

Loading next visibility...
Identifier
47437, 2021-006AA
Orbit
SSO
Country
Flag of TBDTBD
Related business
Manufacturer
SpaceX/Seattle
Mission
Spacecraft
Bus & Motor
Unknown
Mass
~100 kg wet, ~100 kg dry
Launch date (UTC)
2021-01-24 (5 years ago)
Launch vehicle
Unknown
Launch site
Air Force Eastern Test Range (AFETR)
Object type
Unknown
Shape & HBR
Cyl, Unknown HBR
Radar Cross Section
0.110 m², Medium (>0.1 m² and < 1m²)

Expand to show TLE details & history
Last TLE update: 18 hours ago

TLE from 18 hours ago
0 OBJECT AA
1 47437U 21006AA  25286.96616917  .00007001  00000-0  25959-3 0  9993
2 47437  97.2617 329.2461 0009438  11.5658 348.5797 15.27879108261680
Epoch: 2025-10-13T23:11Z
TLE epoch observation values (Epoch: 2025-10-13T23:11:17.016Z)
Latitude
Longitude
-41.33617°
Altitude
478.911 km
Speed
7.63 km/s
True Right ascension
21h 56m 59s
True Declination
0° 00' 00"
Sunlit
Object was in full shadow at epoch
Visualization orbit readout
Latitude
Unknown
Longitude
Unknown
Altitude
Unknown
Speed
Unknown
Apparent Right ascension
Unknown
Apparent Declination
Unknown
Sunlit
N/A
Visualization observer readout
Local Sidereal Time
12:12:20
Azimuth
Unknown
Elevation
Unknown
Doppler factor
Unknown
Orbital elements
Apogee altitude
485.575 km
Perigee altitude
472.631 km
Semi-major axis
6,857.24 km
Eccentricity
0.00094
Inclination
97.2617°
RAAN
329.2461°
Arg. of periapsis
11.5658°
True anomaly
348.55826°
Mean anomaly
348.5797°
Eccentric anomaly
348.56898°
Mean motion
3.82225 °/min
Orbital period
94.19 mins
BSTAR
0.00025959
Loading maneuver chart data...
Computing Atmospheric mass density...

Documentation

Showing up to 5 results
|